This is the latest recevied weather packets stored in our database for station/object DL1GHN-6. If no packets are shown the sender has not sent any weather packets the latest 10 day(s).
| Time | Temp. | Humidity | Pressure | Rain* | Wind** | Luminosity | Snow |
|---|---|---|---|---|---|---|---|
| 1777558981 | 21.67° C | 27% | 1021.9 hPa | 0 mm | - | 615 W/m² | - |
| 1777558681 | 22.22° C | 21% | 1022 hPa | 0 mm | - | 626 W/m² | - |
| 1777558381 | 21.67° C | 25% | 1022 hPa | 0 mm | - | 638 W/m² | - |
| 1777558080 | 22.22° C | 23% | 1022.1 hPa | 0 mm | - | 650 W/m² | - |
| 1777557781 | 22.22° C | 26% | 1022 hPa | 0 mm | - | 659 W/m² | - |
| 1777557482 | 22.22° C | 24% | 1022 hPa | 0 mm | - | 668 W/m² | - |
| 1777557181 | 22.22° C | 25% | 1022.2 hPa | 0 mm | - | 677 W/m² | - |
| 1777556881 | 22.22° C | 22% | 1022.1 hPa | 0 mm | - | 684 W/m² | - |
| 1777556580 | 22.22° C | 27% | 1022 hPa | 0 mm | - | 698 W/m² | - |
| 1777556281 | 21.67° C | 24% | 1022.1 hPa | 0 mm | - | 703 W/m² | - |
| 1777555981 | 21.67° C | 25% | 1022.3 hPa | 0 mm | - | 714 W/m² | - |
| 1777555681 | 21.67° C | 23% | 1022.2 hPa | 0 mm | - | 721 W/m² | - |
| 1777555380 | 21.67° C | 24% | 1022.3 hPa | 0 mm | - | 729 W/m² | - |
| 1777555080 | 21.67° C | 27% | 1022.2 hPa | 0 mm | - | 738 W/m² | - |
| 1777554781 | 21.67° C | 25% | 1022.2 hPa | 0 mm | - | 745 W/m² | - |
| 1777554481 | 21.67° C | 24% | 1022.3 hPa | 0 mm | - | 754 W/m² | - |
| 1777554181 | 21.67° C | 25% | 1022.2 hPa | 0 mm | - | 758 W/m² | - |
| 1777553881 | 21.67° C | 27% | 1022.3 hPa | 0 mm | - | 763 W/m² | - |
| 1777553580 | 21.67° C | 23% | 1022.3 hPa | 0 mm | - | 768 W/m² | - |
| 1777553281 | 21.67° C | 25% | 1022.4 hPa | 0 mm | - | 772 W/m² | - |
| 1777552982 | 21.67° C | 26% | 1022.5 hPa | 0 mm | - | 780 W/m² | - |
| 1777552681 | 21.11° C | 32% | 1022.4 hPa | 0 mm | - | 786 W/m² | - |
| 1777552381 | 21.11° C | 28% | 1022.7 hPa | 0 mm | - | 791 W/m² | - |
| 1777552081 | 21.11° C | 25% | 1022.7 hPa | 0 mm | - | 795 W/m² | - |
| 1777551781 | 21.67° C | 28% | 1022.7 hPa | 0 mm | - | 798 W/m² | - |
* Rain latest hour (hover to see other rain measurements)
** Current wind speed in m/s (hover to see current wind gust speed)